Wind_Speed
49 51 52 54 56 58 60 62 63 65 66 67 67 68 68 69 68 69 69 70 70 70 70 70 69 69 69 68 68 68 68 68 68 67 67 66 66 66
53 54 56 57 59 61 63 64 65 66 67 68 68 68 67 67 67 66 66 65 65 65 65 65 64 64 64 64 64 64 64 64 64 64 64 64 64 64
55 56 58 59 61 62 62 63 63 63 64 64 64 64 63 62 62 61 60 60 59 59 58 58 58 58 58 57 57 57 57 58 59 59 60 61 61 61
56 57 58 59 59 59 59 59 58 58 57 57 57 56 55 55 54 53 52 51 51 51 50 50 50 51 50 50 49 49 49 50 50 51 52 53 53 54
56 56 56 56 56 56 55 54 53 52 51 51 50 50 49 48 46 46 45 45 44 44 43 43 43 43 43 43 43 43 43 43 44 44 45 46 47 48
54 54 54 53 52 51 49 48 47 46 45 44 44 43 42 41 41 40 39 38 38 38 37 37 36 37 37 38 39 39 39 40 41 41 42 43 44 44
51 50 48 46 45 43 42 41 40 39 38 37 37 37 36 36 35 34 34 33 33 33 33 32 32 33 33 34 34 34 35 36 37 38 39 40 40 41
44 42 40 39 38 36 34 33 32 32 32 31 31 30 30 30 29 29 29 28 28 29 29 29 29 29 30 30 30 31 32 33 34 35 36 37 38 39
37 36 34 33 31 29 27 26 25 24 24 24 24 24 24 24 24 25 25 25 25 25 25 25 26 26 26 27 28 29 30 31 32 32 33 34 34 35
32 31 29 27 25 23 22 21 20 19 18 19 19 19 20 20 21 21 22 22 22 22 22 22 23 24 24 25 25 26 26 27 27 28 29 29 30 31
27 25 22 21 19 17 16 15 15 15 15 16 16 16 17 17 18 19 19 19 20 20 20 21 21 22 22 23 23 23 23 23 24 24 25 26 26 26
20 18 17 16 15 14 13 13 14 15 15 15 15 16 16 17 17 17 17 18 18 19 19 19 19 20 20 20 21 21 22 21 21 21 21 21 21 21
16 14 14 13 13 12 13 14 14 15 15 16 16 16 17 17 17 17 18 18 18 18 18 18 18 18 18 18 19 19 19 19 19 19 19 19 18 18
12 12 12 12 13 13 14 15 15 16 16 16 17 17 17 17 18 18 18 18 17 17 17 17 17 17 17 17 18 18 18 17 17 17 17 17 16 15
11 11 11 12 13 14 15 15 16 17 17 17 17 17 17 18 18 18 18 17 17 17 16 16 16 16 16 17 17 17 17 17 17 17 16 16 15 14
10 11 11 12 13 14 15 16 16 17 17 17 17 17 17 17 18 18 17 17 17 17 16 16 16 16 17 17 18 18 18 18 18 18 16 16 15 14
10 11 11 12 13 14 15 16 16 17 17 16 16 17 17 17 17 17 17 16 16 16 16 17 17 17 18 18 19 20 20 19 19 19 18 17 17 16
10 10 11 12 13 14 15 16 16 16 16 16 16 16 17 16 16 16 16 16 15 16 16 17 17 18 18 19 19 20 21 21 21 20 20 19 18 16
9 10 11 12 13 14 15 16 16 16 16 16 16 16 16 16 15 15 15 15 15 15 16 16 17 18 18 19 20 20 22 23 23 23 23 21 20 19
10 11 11 12 13 14 14 15 16 16 16 16 16 16 16 15 15 14 14 14 14 15 15 16 17 17 18 19 20 21 22 24 24 25 25 25 24 22
10 11 11 12 13 13 14 15 15 15 16 15 16 16 16 15 14 14 14 14 14 15 15 16 17 17 18 18 20 21 23 24 25 26 26 27 26 25
10 10 11 12 12 13 14 15 15 16 16 15 15 15 15 15 14 14 13 13 14 14 15 16 16 17 17 18 19 20 21 23 24 25 26 27 27 27
9 10 11 11 12 13 14 15 15 16 16 15 15 15 15 14 13 13 13 13 13 14 14 15 16 16 16 17 18 19 20 21 22 23 25 27 28 28
Wind_Direction
288 288 287 286 286 285 284 283 282 281 280 280 279 279 279 279 279 279 279 279 278 277 277 277 277 277 276 275 275 274 273 272 271 270 270 270 269 268
289 289 288 287 286 286 284 283 282 281 280 281 281 280 281 280 280 280 280 279 279 278 278 277 277 277 277 276 275 274 273 273 272 271 270 269 268 267
291 291 290 289 288 286 285 284 284 283 283 282 282 282 282 282 282 282 282 281 281 280 279 279 278 278 277 277 276 275 275 273 272 271 270 269 268 267
293 292 292 291 290 289 288 287 286 286 285 284 283 284 284 284 284 284 284 284 283 282 281 280 279 279 278 277 277 276 276 275 273 272 271 269 268 267
295 295 294 293 292 291 290 289 289 288 286 285 285 285 285 285 285 285 285 286 285 284 283 282 281 280 279 278 278 277 276 275 274 273 272 270 269 268
297 296 296 296 295 294 293 291 290 289 288 287 286 286 286 287 287 287 287 287 287 287 287 285 283 281 280 280 279 278 277 276 275 274 273 271 270 268
299 299 299 299 298 298 297 295 294 293 291 291 290 289 289 289 289 289 290 290 291 291 290 289 288 286 286 284 282 280 279 278 277 276 275 273 271 269
303 302 302 303 303 302 301 299 298 296 295 295 294 294 294 293 293 293 293 294 294 294 294 293 292 291 291 289 288 286 284 283 282 280 278 276 274 271
306 306 306 306 306 306 306 306 304 303 302 300 300 300 300 298 297 298 298 299 299 298 299 299 298 297 296 294 293 293 291 289 286 284 282 280 277 274
310 310 311 311 312 313 313 312 311 312 312 311 311 310 308 307 306 306 306 306 306 306 305 304 303 302 301 300 300 300 299 297 294 291 288 284 281 277
315 317 318 320 323 324 325 326 328 328 326 325 324 323 321 319 317 317 317 316 315 314 313 312 311 310 309 309 309 308 307 306 303 300 297 293 288 284
324 327 331 335 338 340 343 345 346 344 342 341 339 337 335 332 330 329 327 326 325 324 322 321 320 319 319 319 319 319 318 316 312 310 307 302 297 291
335 340 346 351 354 356 357 357 356 354 353 353 350 347 345 342 340 338 336 336 334 334 333 332 331 330 330 330 329 328 327 325 324 321 318 313 308 301
350 356 1 6 7 7 5 4 4 4 3 0 358 355 353 350 348 347 346 345 345 344 343 343 343 342 341 341 342 341 340 338 336 333 331 328 324 318
360 5 10 11 11 12 12 12 12 10 6 4 2 1 359 357 357 356 355 354 354 355 355 355 357 357 357 356 356 355 353 351 349 346 344 342 338 332
10 12 14 13 12 13 14 13 11 7 7 5 4 3 1 0 359 360 1 2 3 3 5 8 10 10 10 10 9 8 8 7 5 4 2 359 356 351
15 15 14 13 13 13 12 11 10 8 8 7 7 5 4 3 4 4 5 7 10 12 15 17 19 19 20 20 20 20 20 18 16 15 14 11 9 6
15 15 12 13 13 12 11 11 9 9 10 10 9 7 6 7 8 9 11 15 19 21 23 23 24 25 26 26 26 27 25 23 21 20 18 16 16 16
15 14 13 12 10 9 9 10 10 11 11 10 10 9 10 11 13 15 17 21 23 26 27 27 28 29 31 32 32 32 30 28 27 27 25 24 23 22
11 10 9 8 8 9 10 11 13 13 13 13 13 13 15 16 18 21 22 25 27 28 29 30 30 32 35 37 38 37 34 32 32 33 32 31 31 31
5 6 6 6 8 11 12 12 13 14 13 15 16 16 17 19 22 24 27 29 31 31 32 33 34 35 37 39 38 37 36 36 35 35 35 36 36 37
4 7 8 10 12 12 12 13 13 14 15 17 19 19 20 22 25 28 31 34 34 34 35 36 36 37 40 41 40 39 38 38 39 39 40 40 41 42
8 11 13 13 13 13 14 15 16 16 18 21 23 23 24 26 29 32 36 37 38 38 38 40 40 40 42 43 42 41 39 38 39 40 42 42 43 44
Height
5769 5766 5762 5757 5753 5748 5743 5737 5733 5727 5722 5715 5712 5706 5702 5697 5694 5690 5686 5682 5679 5675 5671 5668 5666 5663 5661 5659 5658 5656 5654 5653 5651 5650 5650 5649 5649 5649
5755 5751 5746 5741 5736 5730 5725 5719 5713 5707 5702 5696 5691 5687 5682 5678 5674 5671 5666 5663 5659 5656 5652 5649 5647 5644 5642 5640 5638 5636 5635 5633 5631 5631 5630 5629 5629 5629
5740 5735 5730 5724 5718 5712 5706 5700 5694 5688 5683 5677 5672 5668 5664 5660 5656 5652 5648 5645 5641 5638 5635 5632 5629 5627 5625 5622 5620 5618 5616 5614 5613 5612 5611 5611 5610 5610
5724 5718 5713 5706 5700 5693 5687 5681 5675 5670 5665 5660 5655 5651 5648 5644 5640 5636 5632 5629 5625 5622 5620 5616 5614 5611 5609 5607 5605 5603 5601 5599 5597 5595 5594 5594 5593 5592
5708 5701 5695 5689 5682 5676 5670 5664 5659 5654 5649 5644 5640 5636 5633 5629 5626 5623 5619 5616 5612 5609 5606 5604 5601 5598 5596 5594 5592 5589 5587 5585 5583 5581 5579 5578 5577 5576
5692 5685 5679 5672 5666 5660 5654 5649 5644 5639 5635 5631 5627 5624 5621 5617 5614 5611 5608 5605 5601 5598 5595 5592 5590 5587 5585 5582 5580 5578 5575 5573 5570 5568 5566 5565 5563 5562
5677 5671 5665 5658 5652 5646 5641 5636 5631 5626 5623 5619 5616 5613 5610 5607 5604 5601 5598 5595 5592 5588 5586 5582 5580 5577 5574 5572 5569 5567 5564 5561 5558 5556 5553 5551 5550 5549
5665 5659 5653 5647 5641 5636 5631 5626 5621 5617 5614 5610 5607 5604 5601 5598 5595 5592 5590 5587 5584 5581 5578 5574 5571 5568 5565 5562 5559 5556 5553 5550 5547 5544 5541 5539 5537 5536
5655 5649 5643 5638 5632 5627 5623 5619 5615 5611 5607 5604 5601 5598 5595 5592 5589 5587 5583 5580 5577 5574 5571 5567 5564 5561 5557 5554 5551 5547 5543 5540 5536 5533 5530 5528 5525 5523
5647 5641 5636 5631 5626 5621 5617 5614 5610 5606 5603 5600 5597 5593 5590 5587 5584 5582 5578 5575 5571 5568 5565 5562 5558 5554 5551 5547 5543 5539 5535 5531 5527 5524 5520 5517 5515 5512
5640 5635 5631 5626 5622 5617 5614 5610 5607 5604 5600 5597 5594 5591 5587 5584 5581 5578 5574 5571 5568 5564 5560 5557 5553 5549 5545 5541 5537 5533 5528 5524 5520 5516 5512 5509 5506 5503
5636 5632 5627 5623 5619 5616 5612 5609 5605 5602 5599 5596 5592 5589 5585 5582 5578 5575 5571 5568 5564 5561 5556 5552 5548 5544 5540 5536 5532 5527 5522 5518 5514 5510 5506 5502 5498 5495
5634 5630 5626 5622 5619 5615 5612 5609 5605 5602 5598 5595 5591 5588 5584 5580 5577 5573 5569 5565 5561 5557 5553 5549 5545 5540 5536 5532 5528 5523 5518 5514 5509 5505 5501 5497 5493 5489
5633 5629 5626 5623 5619 5616 5613 5609 5606 5602 5598 5595 5591 5588 5584 5580 5576 5572 5568 5564 5560 5556 5551 5547 5543 5539 5534 5530 5525 5521 5516 5511 5506 5502 5497 5493 5489 5485
5633 5630 5627 5623 5620 5617 5613 5610 5606 5602 5599 5595 5592 5588 5584 5580 5576 5572 5568 5563 5559 5555 5551 5546 5542 5538 5533 5529 5524 5519 5515 5510 5505 5500 5495 5491 5486 5482
5634 5631 5628 5624 5621 5617 5614 5611 5607 5604 5600 5596 5593 5589 5585 5581 5576 5572 5568 5564 5560 5555 5551 5547 5542 5538 5533 5529 5524 5519 5514 5510 5505 5499 5495 5490 5485 5481
5634 5631 5628 5625 5622 5619 5616 5612 5609 5605 5601 5597 5594 5590 5586 5581 5577 5573 5569 5564 5560 5556 5552 5548 5544 5539 5535 5530 5525 5521 5516 5511 5505 5500 5495 5490 5486 5481
5635 5632 5629 5626 5623 5620 5617 5613 5609 5606 5602 5598 5594 5591 5587 5582 5578 5574 5570 5566 5562 5558 5554 5550 5546 5541 5537 5533 5528 5523 5518 5513 5508 5502 5497 5492 5487 5482
5636 5633 5630 5627 5624 5621 5617 5614 5610 5606 5602 5599 5595 5591 5587 5583 5579 5575 5571 5567 5564 5560 5556 5552 5548 5544 5540 5536 5531 5526 5521 5516 5511 5506 5500 5494 5489 5484
5636 5633 5630 5627 5624 5621 5617 5614 5610 5607 5603 5599 5596 5592 5588 5584 5580 5576 5573 5569 5565 5562 5558 5554 5551 5547 5543 5539 5534 5530 5525 5520 5515 5510 5504 5498 5493 5488
5636 5634 5631 5628 5624 5621 5618 5614 5611 5607 5604 5600 5596 5592 5588 5585 5581 5578 5574 5571 5568 5564 5561 5557 5553 5550 5546 5542 5538 5534 5530 5525 5520 5515 5509 5504 5498 5493
5636 5634 5631 5628 5625 5622 5619 5615 5612 5608 5604 5600 5597 5593 5589 5586 5582 5579 5576 5573 5570 5567 5563 5560 5556 5553 5550 5546 5542 5538 5534 5530 5525 5520 5515 5511 5505 5500
5637 5634 5631 5629 5626 5622 5619 5616 5612 5609 5605 5601 5598 5594 5591 5587 5584 5581 5578 5575 5572 5569 5566 5563 5560 5556 5553 5550 5546 5542 5539 5535 5530 5526 5522 5517 5512 5507